This is the latest recevied weather packets stored in our database for station/object WY7EM. If no packets are shown the sender has not sent any weather packets the latest 10 day(s).
| Time | Temp. | Humidity | Pressure | Rain* | Wind** | Luminosity | Snow |
|---|---|---|---|---|---|---|---|
| 1777451990 | 13.89° C | 25% | 1016.1 hPa | 0 mm | - | 0 W/m² | - |
| 1777451686 | 14.44° C | 25% | 1016 hPa | 0 mm | - | 0 W/m² | - |
| 1777451381 | 14.44° C | 24% | 1015.7 hPa | 0 mm | - | 0 W/m² | - |
| 1777451078 | 14.44° C | 24% | 1015.8 hPa | 0 mm | - | 0 W/m² | - |
| 1777450773 | 14.44° C | 24% | 1015.8 hPa | 0 mm | - | 0 W/m² | - |
| 1777450469 | 14.44° C | 24% | 1015.8 hPa | 0 mm | - | 0 W/m² | - |
| 1777450166 | 15° C | 24% | 1015.8 hPa | 0 mm | - | 0 W/m² | - |
| 1777449862 | 15° C | 24% | 1016 hPa | 0 mm | - | 0 W/m² | - |
| 1777449559 | 15.56° C | 23% | 1015.7 hPa | 0 mm | - | 0 W/m² | - |
| 1777449254 | 15.56° C | 23% | 1015.7 hPa | 0 mm | - | 0 W/m² | - |
| 1777448950 | 15.56° C | 22% | 1015.7 hPa | 0 mm | - | 0 W/m² | - |
| 1777448647 | 15.56° C | 23% | 1016 hPa | 0 mm | - | 0 W/m² | - |
| 1777448345 | 15.56° C | 22% | 1015.8 hPa | 0 mm | - | 0 W/m² | - |
| 1777448040 | 14.44° C | 23% | 1016.3 hPa | 0 mm | - | 0 W/m² | - |
| 1777447735 | 14.44° C | 25% | 1016 hPa | 0 mm | - | 0 W/m² | - |
| 1777447432 | 14.44° C | 25% | 1016 hPa | 0 mm | - | 0 W/m² | - |
| 1777447129 | 14.44° C | 26% | 1016.2 hPa | 0 mm | - | 0 W/m² | - |
| 1777446828 | 13.89° C | 26% | 1016.2 hPa | 0 mm | - | 0 W/m² | - |
| 1777446523 | 13.89° C | 26% | 1016.4 hPa | 0 mm | - | 0 W/m² | - |
| 1777446219 | 13.89° C | 26% | 1016.2 hPa | 0 mm | - | 0 W/m² | - |
| 1777445917 | 15° C | 25% | 1016.3 hPa | 0 mm | - | 0 W/m² | - |
| 1777445613 | 15° C | 25% | 1016.2 hPa | 0 mm | - | 0 W/m² | - |
| 1777445309 | 15° C | 24% | 1016 hPa | 0 mm | - | 0 W/m² | - |
| 1777445005 | 14.44° C | 25% | 1016 hPa | 0 mm | - | 0 W/m² | - |
| 1777444701 | 14.44° C | 25% | 1015.8 hPa | 0 mm | - | 0 W/m² | - |
* Rain latest hour (hover to see other rain measurements)
** Current wind speed in m/s (hover to see current wind gust speed)